Weather History for Hibbing, MN

Change the Weather History Date:

Friday, October 14, 2011

  Actual Average Record
Temperature  
Mean Temperature 47 °F -  
Max Temperature 53 °F 53 °F 78 °F (1963)
Min Temperature 41 °F 33 °F 19 °F (1978)
Degree Days  
Heating Degree Days 18    
Moisture  
Dew Point 36 °F    
Average Humidity 73    
Maximum Humidity 89    
Minimum Humidity 49    
Precipitation  
Precipitation 0.00 in - - ()
Sea Level Pressure  
Sea Level Pressure 29.60 in    
Wind  
Wind Speed 17 mph (NW)    
Max Wind Speed 26 mph    
Max Gust Speed 40 mph    
Visibility 10 miles    
Events Rain    
Averages and records for this station are not official NWS values.
T = Trace of Precipitation, MM = Missing Value Source: NWS Daily Summary

Daily Weather History Graph

Daily Weather History Graph

Search for Another Location

Airport:

Trip Planner

Search our weather history database for the weather conditions in past years. The results will help you decide how hot, cold, wet, or windy it might be!

Date:

Astronomy

Oct. 14, 2011 Rise Set
Actual Time 7:28 AM CDT 6:25 PM CDT
Civil Twilight 6:57 AM CDT 6:56 PM CDT
Nautical Twilight 6:21 AM CDT 7:32 PM CDT
Astronomical Twilight 5:46 AM CDT 8:07 PM CDT
Moon 7:24 PM CDT (10/14) 10:11 AM CDT (10/14)
Length of Visible Light 11h 59m
Length of Day
10h 57m
Waning Gibbous, 94% of the Moon is Illuminated
Oct 14
Waning Gibbous
Oct 19
Last Quarter
Oct 26
New
Nov 2
First Quarter
Nov 10
Full

Hourly Weather History & Observations

Time (CDT) Temp. Windchill Dew Point Humidity Pressure Visibility Wind Dir Wind Speed Gust Speed Precip Events Conditions
12:53 AM 45.0 °F 38.9 °F 39.0 °F 80% 29.58 in 10.0 mi NW 12.7 mph 19.6 mph N/A   Overcast
1:05 AM 44.6 °F 38.4 °F 39.2 °F 81% 29.56 in 10.0 mi WNW 12.7 mph - N/A   Overcast
1:21 AM 44.6 °F 38.1 °F 39.2 °F 81% 29.56 in 10.0 mi NW 13.8 mph 20.7 mph N/A   Overcast
1:53 AM 45.0 °F 38.9 °F 39.9 °F 82% 29.58 in 10.0 mi NW 12.7 mph - N/A   Overcast
2:42 AM 44.6 °F 38.1 °F 39.2 °F 81% 29.56 in 10.0 mi NW 13.8 mph 21.9 mph N/A   Overcast
2:53 AM 44.1 °F 37.1 °F 39.9 °F 85% 29.59 in 10.0 mi NW 15.0 mph 20.7 mph N/A   Overcast
3:41 AM 44.6 °F 38.1 °F 39.2 °F 81% 29.55 in 10.0 mi NW 13.8 mph - N/A   Overcast
3:53 AM 44.1 °F 37.4 °F 39.0 °F 82% 29.58 in 10.0 mi NW 13.8 mph 20.7 mph N/A   Overcast
4:53 AM 44.1 °F 37.1 °F 39.0 °F 82% 29.58 in 10.0 mi WNW 15.0 mph 21.9 mph N/A   Overcast
5:41 AM 42.8 °F 35.4 °F 37.4 °F 81% 29.56 in 10.0 mi NW 15.0 mph 20.7 mph N/A   Overcast
5:53 AM 43.0 °F 34.8 °F 37.9 °F 82% 29.59 in 10.0 mi NW 18.4 mph 25.3 mph N/A   Overcast
6:53 AM 42.1 °F 34.9 °F 39.0 °F 89% 29.59 in 8.0 mi NW 13.8 mph 25.3 mph N/A   Overcast
7:22 AM 42.8 °F 35.1 °F 37.4 °F 81% 29.56 in 10.0 mi WNW 16.1 mph 29.9 mph N/A   Overcast
7:41 AM 42.8 °F 34.5 °F 37.4 °F 81% 29.57 in 8.0 mi NW 18.4 mph 29.9 mph 0.00 in Rain Light Rain
7:53 AM 42.8 °F 34.8 °F 39.2 °F 87% 29.57 in 7.0 mi NW 17.3 mph 27.6 mph N/A Rain Light Rain
8:17 AM 42.8 °F 35.4 °F 39.2 °F 87% 29.57 in 6.0 mi NW 15.0 mph - 0.00 in Rain Light Rain
8:29 AM 42.8 °F 34.8 °F 39.2 °F 87% 29.57 in 9.0 mi WNW 17.3 mph 25.3 mph 0.00 in Rain Light Rain
8:53 AM 42.1 °F 33.3 °F 39.0 °F 89% 29.60 in 10.0 mi WNW 19.6 mph 25.3 mph 0.00 in   Overcast
9:00 AM 42.8 °F 34.8 °F 37.4 °F 81% 29.57 in 10.0 mi WNW 17.3 mph 24.2 mph N/A   Overcast
9:53 AM 43.0 °F 34.8 °F 37.9 °F 82% 29.61 in 10.0 mi WNW 18.4 mph 28.8 mph N/A   Overcast
10:11 AM 42.8 °F 34.8 °F 37.4 °F 81% 29.58 in 10.0 mi WNW 17.3 mph 31.1 mph N/A   Overcast
10:33 AM 44.6 °F 36.1 °F 37.4 °F 76% 29.59 in 10.0 mi NW 21.9 mph 29.9 mph N/A   Overcast
10:53 AM 44.6 °F 36.4 °F 37.4 °F 76% 29.59 in 10.0 mi WNW 20.7 mph 28.8 mph N/A   Overcast
11:22 AM 46.4 °F 38.1 °F 35.6 °F 66% 29.59 in 10.0 mi WNW 24.2 mph 33.4 mph N/A   Overcast
11:30 AM 44.6 °F 36.4 °F 35.6 °F 71% 29.59 in 10.0 mi NW 20.7 mph 31.1 mph N/A   Overcast
11:53 AM 45.0 °F 36.6 °F 35.1 °F 68% 29.62 in 10.0 mi NW 21.9 mph 32.2 mph N/A   Overcast
12:12 PM 46.4 °F 37.7 °F 33.8 °F 62% 29.60 in 10.0 mi NW 26.5 mph 40.3 mph N/A   Overcast
12:53 PM 48.0 °F - 35.1 °F 61% 29.62 in 10.0 mi NW 21.9 mph 35.7 mph N/A   Overcast
1:53 PM 48.0 °F - 32.0 °F 54% 29.61 in 10.0 mi NW 25.3 mph 38.0 mph N/A   Mostly Cloudy
2:53 PM 52.0 °F - 33.1 °F 49% 29.61 in 10.0 mi WNW 25.3 mph 36.8 mph N/A   Overcast
3:53 PM 48.9 °F - 33.1 °F 54% 29.62 in 10.0 mi NW 24.2 mph 38.0 mph N/A   Mostly Cloudy
4:53 PM 48.9 °F - 34.0 °F 56% 29.64 in 10.0 mi WNW 20.7 mph 31.1 mph N/A   Mostly Cloudy
5:53 PM 48.0 °F - 33.1 °F 56% 29.66 in 10.0 mi WNW 21.9 mph 33.4 mph N/A   Mostly Cloudy
6:53 PM 46.9 °F - 32.0 °F 56% 29.68 in 10.0 mi WNW 17.3 mph 33.4 mph N/A   Overcast
7:53 PM 46.0 °F 37.8 °F 30.9 °F 56% 29.68 in 10.0 mi WNW 23.0 mph 36.8 mph N/A   Overcast
8:53 PM 45.0 °F 36.6 °F 30.9 °F 58% 29.69 in 10.0 mi WNW 21.9 mph 29.9 mph N/A   Mostly Cloudy
9:53 PM 43.0 °F 33.8 °F 30.0 °F 60% 29.70 in 10.0 mi NW 23.0 mph 34.5 mph N/A   Clear
10:53 PM 42.8 °F 34.5 °F 30.2 °F 61% 29.67 in 10.0 mi NW 18.4 mph 25.3 mph N/A   Clear
11:53 PM 41.0 °F 32.5 °F 30.9 °F 67% 29.71 in 10.0 mi WNW 17.3 mph 23.0 mph N/A   Clear